www.pogodaiklimat.ru

Погода и климат >> Архив погоды >> Австрия >> Дойчландсберг


ПОГОДА в Дойчландсберге

  • Прогноз погоды в Дойчландсберге
  • Монитор погоды в Дойчландсберге

АРХИВ ПОГОДЫ в Дойчландсберге

Время (UTC), дата Ветер
(напр.,м/с)
 
Видим.   Явления Облачность Т
(С)
Тd
(С)
f
(%)
Тe
(С)
Тes
(С)
Комфортность P
(гПа)
Po
(гПа)
Тmin
(С)
Tmax
(С)
R
(мм)
R24
(мм)
S
(см)
19 18.08 З 1 н/о н/о +22.3 +18.9 81 +28 +28 душно 1012.4 972.2 0.0
20 18.08 З 1 н/о н/о +21.6 +18.0 80 +26 +26 душно 1012.8 972.4
21 18.08 З 1 н/о н/о +20.4 +17.9 86 +25 +25 комфорт 1013.1 972.6 0.0
22 18.08 Ю 1 н/о н/о +19.6 +17.1 85 +23 +23 комфорт 1013.6 972.9
23 18.08 З 1 н/о н/о +19.3 +16.8 85 +22 +22 комфорт 1013.4 972.7
00 19.08 В 2 н/о н/о +19.0 +16.6 86 +21 +21 комфорт 1013.4 972.6 0.0
01 19.08 З 1 н/о н/о +17.6 +16.4 93 +19 +19 1013.4 972.4
02 19.08 С 1 н/о н/о +17.0 +15.9 93 +18 +18 1013.5 972.4
03 19.08 штиль 0 н/о н/о +16.7 +15.6 93 +17 +17 1013.7 972.6
04 19.08 З 1 н/о н/о +16.5 +15.5 94 +17 +17 1014.3 973.1
05 19.08 СВ 1 н/о н/о +17.1 +15.6 91 +18 +18 1014.6 973.5
06 19.08 В 1 н/о н/о +19.8 +16.2 80 +23 +23 комфорт 1014.7 974.0 +16.2 +26.0 0.0
07 19.08 штиль 0 н/о н/о +22.6 +16.9 70 +27 +27 душно 1014.9 974.6 0.0
08 19.08 СВ 2 н/о н/о +24.5 +17.8 66 +29 +29 душно 1015.0 974.9
09 19.08 В 1 н/о н/о +26.5 +16.9 56 +30 +30 душно 1015.2 975.4 0.0
10 19.08 ЮВ 2 н/о н/о +27.7 +16.2 50 +31 +31 душно 1015.5 975.8
11 19.08 ЮВ 2 н/о н/о +28.8 +15.7 45 +32 +32 душно 1015.4 975.8
12 19.08 В 3 н/о н/о +28.7 +15.5 45 +32 +32 душно 1015.4 975.8 0.0
13 19.08 ЮВ 3 н/о н/о +28.5 +16.2 47 +32 +32 душно 1015.8 976.2
14 19.08 ЮВ 3 н/о н/о +28.6 +16.4 48 +32 +32 душно 1015.4 975.8
15 19.08 ЮВ 2 н/о н/о +28.5 +15.7 46 +32 +32 душно 1015.2 975.6
16 19.08 ЮВ 3 н/о н/о +27.6 +17.1 53 +32 +32 очень
душно
1014.9 975.2
17 19.08 ЮВ 2 н/о н/о +27.1 +17.6 56 +31 +31 душно 1015.0 975.3
18 19.08 З 1 н/о н/о +24.7 +18.9 70 +30 +30 очень
душно
1015.7 975.6 +19.4 +29.3 0.0
19 19.08 Ю 1
{13}
н/о н/о +20.1 +17.5 85 +24 +24 комфорт 1018.2 977.4 6
20 19.08 С 1 н/о в посл. час осадки н/о +19.5 +17.2 87 +23 +23 комфорт 1019.0 978.1 0.1
21 19.08 Ю 1
{13}
н/о {ливн. осадки} н/о +19.1 +17.3 89 +22 +22 комфорт 1019.2 978.2 6
22 19.08 ЮЗ 1 н/о н/о +18.2 +17.2 94 +20 +20 1019.5 978.4
23 19.08 штиль 0 н/о н/о +17.6 +16.8 95 +18 +18 1019.2 978.0
00 20.08 В 1
{13}
н/о {ливн. осадки} н/о +17.3 +16.5 95 +18 +18 1019.2 978.0 6
01 20.08 штиль 0 н/о н/о +16.9 +16.2 96 +17 +17 1019.2 977.9
02 20.08 штиль 0 н/о н/о +17.0 +16.3 96 +17 +17 1019.7 978.4
03 20.08 ЮЗ 1 н/о н/о +16.9 +16.1 95 +18 +18 1019.7 978.4
04 20.08 В 1 н/о н/о +16.5 +15.7 95 +17 +17 1019.9 978.5
05 20.08 штиль 0 н/о н/о +16.6 +15.9 96 +16 +16 1020.1 978.7
06 20.08 В 1
{13}
н/о н/о +19.3 +16.5 84 +22 +22 комфорт 1020.0 979.0 +16.3 +24.9 6
07 20.08 штиль 0 н/о н/о +20.9 +17.7 82 +25 +25 комфорт 1019.9 979.1
08 20.08 В 1 н/о н/о +23.3 +19.0 77 +30 +30 очень
душно
1019.5 979.1 0.0
09 20.08 В 1 н/о н/о +24.2 +17.6 67 +28 +28 душно 1019.5 979.2 0.0
10 20.08 В 2 н/о н/о +25.8 +17.0 58 +30 +30 душно 1019.2 979.1
11 20.08 СВ 1 н/о н/о +25.9 +16.4 56 +29 +29 душно 1018.8 978.7
12 20.08 В 1 н/о н/о +27.4 +17.0 53 +31 +31 душно 1017.9 978.1 0.0
13 20.08 СВ 2 н/о н/о +27.9 +18.1 55 +32 +32 душно 1017.4 977.7
14 20.08 ЮВ 2 н/о н/о +28.4 +18.3 54 +33 +33 очень
душно
1017.0 977.4
15 20.08 Ю 2 н/о н/о +28.5 +18.8 56 +34 +34 очень
душно
1016.7 977.1
16 20.08 В 1 н/о н/о +28.2 +18.5 56 +33 +33 очень
душно
1016.5 976.9
17 20.08 Ю 1 н/о н/о +28.3 +19.0 57 +34 +34 очень
душно
1016.3 976.7
18 20.08 ЮЗ 2 н/о н/о +24.7 +19.9 75 +30 +30 очень
душно
1017.0 976.9 +18.9 +29.2 0.0
19 20.08 З 1 н/о н/о +22.7 +19.6 83 +29 +29 очень
душно
1017.7 977.3
20 20.08 З 1 н/о н/о +21.3 +19.3 88 +26 +26 душно 1017.7 977.1
21 20.08 штиль 0 н/о н/о +20.8 +19.0 89 +25 +25 комфорт 1018.0 977.3
22 20.08 З 1 н/о н/о +20.2 +18.7 91 +25 +25 комфорт 1017.8 977.1
23 20.08 В 1 н/о н/о +19.7 +18.3 92 +23 +23 комфорт 1017.9 977.1
00 21.08 З 1 н/о н/о +19.5 +18.2 92 +23 +23 комфорт 1018.0 977.1
01 21.08 штиль 0 н/о н/о +19.4 +18.0 92 +21 +21 комфорт 1018.4 977.5
02 21.08 штиль 0 н/о н/о +19.1 +17.9 93 +21 +21 комфорт 1018.6 977.7
03 21.08 З 1 н/о н/о +19.0 +17.7 92 +22 +22 комфорт 1019.1 978.1
04 21.08 З 1 н/о н/о +19.3 +17.4 89 +22 +22 комфорт 1020.2 979.2
05 21.08 штиль 0 н/о н/о +20.4 +16.8 80 +23 +23 комфорт 1020.9 980.0
06 21.08 В 2 н/о н/о +21.2 +14.9 67 +24 +24 комфорт 1021.9 981.1 +18.8 +25.0
07 21.08 СВ 2 н/о н/о +21.5 +14.0 62 +24 +24 комфорт 1022.6 981.8
08 21.08 СВ 2 н/о н/о +21.9 +13.9 60 +25 +25 комфорт 1023.0 982.2
09 21.08 СВ 2 н/о н/о +21.9 +12.6 56 +24 +24 комфорт 1023.8 982.9
10 21.08 СВ 3 н/о н/о +22.2 +12.8 55 +25 +25 комфорт 1023.9 983.1
11 21.08 С 1 н/о н/о +21.4 +12.8 58 +24 +24 комфорт 1024.3 983.4
12 21.08 С 2 н/о н/о +21.2 +13.2 60 +24 +24 комфорт 1024.5 983.5
13 21.08 СВ 2 н/о н/о +21.7 +13.5 60 +24 +24 комфорт 1024.4 983.5
14 21.08 С 1 н/о н/о +20.8 +13.5 63 +24 +24 комфорт 1024.7 983.7
15 21.08 СЗ 1 н/о н/о +20.9 +14.0 65 +25 +25 комфорт 1024.5 983.5 0.0
16 21.08 С 1 н/о н/о +20.5 +14.8 70 +24 +24 комфорт 1024.9 983.8
17 21.08 С 1 н/о н/о +19.9 +13.8 68 +23 +23 комфорт 1024.6 983.5
18 21.08 С 1 н/о н/о +19.5 +14.4 72 +22 +22 комфорт 1024.8 983.6 +19.4 +22.7 0.0
19 21.08 С 1 н/о н/о +18.3 +15.2 82 +20 +20 1025.6 984.2
20 21.08 штиль 0 н/о н/о +17.3 +14.5 84 +17 +17 1026.1 984.5
21 21.08 З 2 н/о н/о +16.8 +13.9 83 +17 +17 1026.4 984.8
22 21.08 штиль 0 н/о н/о +16.3 +14.2 87 +16 +16 1026.6 984.9
23 21.08 З 1 н/о н/о +16.0 +13.5 85 +17 +17 1026.6 984.8
00 22.08 З 1 н/о н/о +15.4 +13.0 86 +16 +16 1026.0 984.2
01 22.08 ЮВ 1 н/о н/о +15.5 +13.3 87 +16 +16 1025.5 983.7
02 22.08 Ю 1 н/о осадки н/о +15.6 +13.4 87 +16 +16 1025.6 983.8 0.2
03 22.08 З 1 н/о в посл. час осадки н/о +15.4 +13.9 91 +16 +16 1025.6 983.8 0.2
04 22.08 штиль 0 н/о ливневой дождь н/о +15.4 +14.1 92 +15 +15 1025.8 984.0 0.2
05 22.08 штиль 0 н/о осадки н/о +15.2 +14.3 94 +15 +15 1025.3 983.5 1
06 22.08 В 1 н/о ливневой дождь н/о +15.6 +14.5 93 +16 +16 1025.4 983.6 +15.1 +19.5 3
07 22.08 СВ 1 н/о в посл. час осадки н/о +18.3 +14.9 81 +20 +20 1024.9 983.5 0.2
08 22.08 В 1 н/о н/о +19.0 +14.0 73 +21 +21 комфорт 1025.0 983.7
09 22.08 С 1 н/о {осадки} н/о +19.1 +13.2 69 +21 +21 комфорт 1025.1 983.8 0.2
10 22.08 З 1 н/о н/о +20.1 +13.5 66 +23 +23 комфорт 1024.7 983.6
11 22.08 СВ 1 н/о н/о +21.1 +13.4 61 +23 +23 комфорт 1024.3 983.3
12 22.08 СВ 1 н/о {осадки} н/о +21.1 +13.9 63 +24 +24 комфорт 1024.2 983.2 0.2
13 22.08 ЮВ 2 н/о н/о +21.1 +14.2 65 +24 +24 комфорт 1023.9 983.0
14 22.08 Ю 1 н/о н/о +21.3 +15.1 68 +24 +24 комфорт 1023.6 982.7
15 22.08 ЮВ 1 н/о н/о +21.1 +14.8 67 +24 +24 комфорт 1023.2 982.3
16 22.08 ЮВ 2 н/о н/о +21.1 +14.9 68 +24 +24 комфорт 1023.2 982.3
17 22.08 штиль 0 н/о н/о +20.3 +16.5 79 +23 +23 комфорт 1023.1 982.1 0.0
18 22.08 З 1 н/о н/о +19.8 +16.2 80 +23 +23 комфорт 1023.7 982.6 +15.5 +21.7 0.2
19 22.08 ЮЗ 1 н/о н/о +18.6 +15.7 83 +21 +21 комфорт 1024.8 983.5
20 22.08 З 1 н/о н/о +17.8 +14.7 82 +19 +19 1025.5 984.0
21 22.08 штиль 0 н/о н/о +17.7 +15.0 84 +18 +18 1025.5 984.0
22 22.08 штиль 0 н/о н/о +17.9 +15.4 85 +18 +18 1025.4 984.0
23 22.08 ЮВ 1 н/о н/о +18.1 +15.4 84 +19 +19 1025.4 984.0
00 23.08 ЮЗ 1 н/о н/о +18.1 +15.6 85 +19 +19 1025.2 983.8
01 23.08 СЗ 1 н/о в посл. час осадки н/о +17.5 +16.0 91 +19 +19 1025.1 983.6 0.6
02 23.08 СЗ 1 н/о осадки н/о +17.1 +15.7 91 +18 +18 1025.1 983.6 0.2
03 23.08 В 2 н/о в посл. час осадки {ливн. осадки} н/о +17.1 +16.1 94 +17 +17 1024.9 983.4 0.9
04 23.08 СЗ 1 н/о н/о +16.7 +15.7 94 +18 +18 1025.1 983.5
05 23.08 З 1 н/о н/о +16.7 +15.7 94 +18 +18 1025.4 983.8
06 23.08 В 1 н/о {ливн. осадки} н/о +17.6 +15.6 88 +19 +19 1025.6 984.1 +16.5 +20.1 0.9
07 23.08 штиль 0 н/о н/о +18.5 +16.3 87 +19 +19 1025.7 984.4
08 23.08 С 1 н/о н/о +19.0 +16.6 86 +22 +22 комфорт 1026.0 984.7
09 23.08 ЮЗ 1 н/о н/о +19.3 +16.5 84 +22 +22 комфорт 1026.0 984.8
10 23.08 штиль 0 н/о н/о +20.2 +17.1 82 +23 +23 комфорт 1025.8 984.7
11 23.08 СЗ 1 н/о н/о +21.5 +15.5 69 +25 +25 комфорт 1025.3 984.4
12 23.08 штиль 0 н/о н/о +22.6 +15.5 64 +27 +27 душно 1024.9 984.1 0.0
13 23.08 штиль 0 н/о н/о +23.7 +16.2 63 +27 +27 жарко 1024.3 983.7
14 23.08 С 1 н/о н/о +24.1 +16.6 63 +28 +28 душно 1023.8 983.3
15 23.08 В 2 н/о н/о +23.8 +16.0 62 +27 +27 жарко 1023.1 982.6
16 23.08 В 2 н/о н/о +23.7 +16.4 64 +27 +27 жарко 1022.7 982.2
17 23.08 З 1 н/о н/о +22.7 +17.2 71 +28 +28 душно 1022.8 982.2 0.0
18 23.08 З 1 н/о н/о +20.5 +17.7 84 +25 +25 комфорт 1023.2 982.3 +17.5 +24.7 0.0
19 23.08 З 2 н/о н/о +19.4 +17.0 86 +22 +22 комфорт 1023.7 982.6
20 23.08 штиль 0 н/о н/о +18.8 +16.9 89 +20 +20 1024.1 982.9
21 23.08 В 1 н/о н/о +19.3 +17.2 88 +22 +22 комфорт 1023.6 982.5
22 23.08 штиль 0 н/о н/о +19.4 +17.3 88 +21 +21 комфорт 1023.3 982.2 0.0
23 23.08 В 1 н/о н/о +19.4 +17.4 88 +23 +23 комфорт 1023.1 982.0
00 24.08 штиль 0 н/о в посл. час осадки н/о +18.8 +17.7 93 +20 +20 1023.0 981.8 0.2
01 24.08 штиль 0 н/о н/о +18.5 +17.7 95 +19 +19 1022.8 981.6
02 24.08 штиль 0 н/о н/о +18.8 +17.8 94 +20 +20 1022.8 981.6
03 24.08 штиль 0 н/о н/о +18.5 +17.5 94 +19 +19 1022.5 981.3
04 24.08 штиль 0 н/о н/о +18.3 +17.4 94 +19 +19 1022.5 981.3
05 24.08 штиль 0 н/о н/о +18.4 +17.5 94 +19 +19 1022.3 981.1
06 24.08 С 1 н/о н/о +19.3 +18.0 92 +22 +22 комфорт 1022.3 981.2 +18.2 +21.1 0.2
07 24.08 штиль 0 н/о н/о +21.2 +18.4 84 +25 +25 комфорт 1021.9 981.1
08 24.08 штиль 0 н/о н/о +23.3 +18.3 73 +29 +29 душно 1021.7 981.2 0.0
09 24.08 СВ 1 н/о н/о +24.4 +18.6 70 +29 +29 душно 1021.5 981.2 0.0
10 24.08 В 1 н/о н/о +25.0 +18.6 68 +30 +30 душно 1021.0 980.8
11 24.08 В 2 н/о н/о +25.6 +18.0 63 +30 +30 душно 1020.7 980.5
12 24.08 В 1 н/о н/о +26.2 +18.2 61 +31 +31 очень
душно
1020.0 980.0 0.0
13 24.08 Ю 1 н/о н/о +25.3 +19.0 68 +30 +30 душно 1020.0 979.9
14 24.08 Ю 2 н/о осадки н/о +22.8 +20.2 85 +29 +29 очень
душно
1020.6 980.1 0.7
15 24.08 В 2 н/о осадки н/о +19.2 +17.4 89 +22 +22 комфорт 1021.1 980.1 3
16 24.08 СВ 1 н/о ливневой дождь н/о +18.0 +16.7 92 +19 +19 1022.2 980.9 1
17 24.08 ЮЗ 1 н/о в посл. час осадки н/о +18.2 +17.0 93 +20 +20 1021.0 979.8 0.6
18 24.08 ЮЗ 1 н/о {ливн. осадки} н/о +17.8 +16.6 93 +19 +19 1021.3 980.0 +17.7 +26.9 5
19 24.08 СЗ 1 н/о н/о +17.8 +17.0 95 +19 +19 1021.6 980.3
20 24.08 З 1 н/о осадки н/о +18.5 +17.5 94 +20 +20 1021.2 980.1 2
21 24.08 Ю 1 н/о {осадки} н/о +18.2 +16.8 92 +20 +20 1022.9 981.6 8
22 24.08 ЮВ 2 н/о н/о +17.7 +16.2 91 +18 +18 1020.8 979.5 5
23 24.08 С 1 н/о н/о +17.1 +16.2 94 +18 +18 1021.3 979.9 0.0
00 25.08 СЗ 1 н/о {ливн. осадки} н/о +17.0 +16.2 95 +18 +18 1020.3 979.0 13
01 25.08 ЮЗ 1 н/о н/о +16.9 +16.2 96 +18 +18 1020.7 979.3
02 25.08 Ю 1 н/о н/о +16.9 +15.9 94 +18 +18 1020.7 979.3 0.0
03 25.08 штиль 0 н/о н/о +16.7 +15.9 95 +17 +17 1020.7 979.3 0.0
04 25.08 ЮВ 1 н/о н/о +16.7 +15.8 94 +18 +18 1021.1 979.7
05 25.08 В 2 н/о н/о +17.0 +16.0 94 +17 +17 1021.1 979.7
06 25.08 штиль 0 н/о н/о +17.5 +16.5 94 +17 +17 1021.5 980.2 +16.5 +18.9 13
07 25.08 С 1 н/о н/о +18.6 +16.3 86 +21 +21 комфорт 1021.4 980.2
08 25.08 СВ 1 н/о н/о +19.3 +17.1 87 +22 +22 комфорт 1021.8 980.7
09 25.08 ЮВ 1 н/о н/о +21.2 +17.7 80 +25 +25 комфорт 1021.3 980.5 0.0
10 25.08 В 1 н/о н/о +21.2 +18.0 82 +25 +25 комфорт 1021.3 980.5 0.0
11 25.08 В 1 н/о н/о +22.6 +18.4 77 +28 +28 душно 1020.6 980.1
12 25.08 штиль 0 н/о н/о +24.2 +17.1 65 +28 +28 душно 1020.1 979.8 0.0
13 25.08 ЮВ 1 н/о н/о +25.0 +17.7 64 +29 +29 душно 1019.5 979.3
14 25.08 штиль 0 н/о н/о +25.4 +17.1 60 +29 +29 душно 1019.0 978.9 0.0
15 25.08 СВ 2 н/о н/о +25.5 +17.6 62 +30 +30 душно 1018.7 978.6 0.0
16 25.08 Ю 1 н/о н/о +25.4 +17.6 62 +30 +30 душно 1018.6 978.5 0.0
17 25.08 ЮЗ 1 н/о н/о +23.7 +18.0 70 +28 +28 душно 1019.0 978.7
18 25.08 З 1 н/о н/о +21.5 +18.4 83 +26 +26 душно 1019.9 979.2 +17.3 +26.3 0.0

 

Местоположение метеостанции Дойчландсберг (Австрия): широта 46.82 долгота 15.23 высота над уровнем моря 354 м.

В архиве по умолчанию представлена погода в Дойчландсберге за последнюю неделю. Архивные данные за месяц целиком и за предыдущие месяцы, начиная с января 2011 года, Вы можете получить, выбрав интересующий диапазон дат из раскрывающегося списка и нажав кнопку "Ввод!".


*Определитесь, кто Вы:
робот инопланетянин человек

Внимание! Время в таблицах - всемирное. Для получения местного времени необходимо прибавить поправку, которая равна 1 ч.

Смотрите также архив погоды в соседних городах и на ближайших метеорологических станциях:

Погода в Лейбнице (Австрия) (25 км)
Погода в Граце (Австрия) (25 км)
Погода в Прайтенеге (Австрия) (27 км)
Погода в Кёфлаге (Австрия) (30 км)
Погода в Санкт-Андре (Австрия) (31 км)
Погода в Граце университет (Австрия) (37 км)
Погода в Ласницхёэ (Австрия) (38 км)
Погода в Словень-Градеце (Словения) (39 км)
Погода в Санкт Радегунд бай Грац (Австрия) (43 км)
Погода в Файстриц-об-Блайбурге (Австрия) (45 км)

Пояснения к столбцам:

Ветер - указаны скорость ветра в м/с - средняя за 10 мин, порывы в срок и между сроками (в фигурных скобках) и направление, откуда дует ветер: С - северный, СВ - северо-восточный, В - восточный, ЮВ - юго-восточный, Ю - южный, ЮЗ - юго-западный, З - западный, СЗ - северо-западный.
Видимость - горизонтальная дальность видимости в метрах или километрах. При видимости от 1 до 10 км при отсутствии осадков обычно наблюдается дымка, при ухудшении видимости до 1 км и менее - туман. В сухую погоду видимость может ухудшаться дымом, пылью или мглою.
Явления - указаны атмосферные явления, наблюдавшиеся в срок или в последний час перед сроком; фигурными скобками обозначены явления, наблюдавшиеся между сроками (за 1-3 часа до срока); квадратными скобками обозначены град или гололедные отложения с указанием их диаметра в мм.
Облачность - указаны через наклонную черту общая и нижняя облачность в баллах и высота нижней границы облаков в метрах; квадратными скобками обозначены формы облаков: Ci - перистые, Cs - перисто-слоистые, Cc - перисто-кучевые, Ac - высококучевые, As - высокослоистые, Sc - слоисто-кучевые, Ns - слоисто-дождевые, Cu - кучевые, Cb - кучево-дождевые. Подробнее классификацию облаков см. в Атласе облаков (PDF).
T - Температура воздуха - температура, измеренная на высоте 2 м над землей.
Td - Температура точки росы - температура, при понижении до которой содержащийся в воздухе водяной пар достигнет насыщения.
f - Относительная влажность воздуха - влажноcть воздуха, измеренная на высоте 2 м над землей.
Te - Эффективная температура - температура, которую ощущает одетый по сезону человек в тени. Характеристика душности погоды. При расчете учитывается влияние влажности воздуха и скорости ветра на теплоощущения человека.
Tes - Эффективная температура на солнце - температура, которую ощущает человек, с поправкой на солнечный нагрев. Характеристика знойности погоды. Зависит от высоты солнца над горизонтом, облачности и скорости ветра. Ночью, в пасмурную погоду, а также при ветре 12 м/с и более поправка равна нулю.
P - Атмосферное давление - приведенное к уровню моря атмосферное давление.
Po - Атмосферное давление - измеренное на уровне метеостанции атмосферное давление.
Tmin - Минимальная температура - минимум температуры воздуха на высоте 2 м над землей.
Tmax - Максимальная температура - максимум температуры воздуха на высоте 2 м над землей.
R - Количество осадков - Количество выпавших осадков за период времени, мм. При наведении курсора мыши на число - период времени, за который выпало указанное количество осадков.
R24 - Количество осадков - Количество выпавших осадков за 24 часа, мм.
S - Снежный покров - Высота снежного покрова, см. При наведении курсора мыши на число - состояние снежного покрова и степень покрытия местности в баллах.